User: anonymous
Location: Oshawa
(43.9000°N, 78.8670°W)
Time: 09:02:34
(UTC-04:00)
Language:

CARTOSAT-1 - Orbit

View from above orbital plane
View from above orbital plane
View from above satellite
View from above satellite

Ground track
Ground track

The orbit data is extracted from the following two-line orbital elements,

1 28649U 05017A   14293.18460051  .00001156  00000-0  14703-3 0  7186
2 28649 097.8228 004.7273 0000418 033.8322 326.2954 14.83460565512027
Epoch (UTC): 20 October 2014 04:25:49
Eccentricity: 0.0000418
inclination: 97.8228°
perigee height: 618 km
apogee height: 619 km
right ascension of ascending node: 4.7273°
argument of perigee: 33.8322°
revolutions per day: 14.83460565
mean anomaly at epoch: 326.2954°
orbit number at epoch: 51202

The dashed part of the orbit path shows where the satellite is in the earth's shadow,  

DLR